Tracking 20242 objects as of 24-Jan-2020
HD Live streaming from Space Station
objects crossing your sky now

S-NET C

Track S-NET C now!
10-day predictions


NORAD ID: 43189
Int'l Code: 2018-014K
Perigee: 576.3 km
Apogee: 591.9 km
Inclination: 97.7 °
Period: 96.2 minutes
Semi major axis: 6955 km
RCS: Unknown
Launch date: February 1, 2018
Source: Germany (GER)
Launch site: VOSTOCHNY COSMODROME (VOSTO)
aabbcc
Your satellite tracking list
Your tracking list is empty




NASA's NSSDC Master Catalog

Two Line Element Set (TLE):
1 43189U 18014K   20023.44417594 +.00000036 +00000-0 +81925-5 0  9993
2 43189 097.7028 293.5635 0011157 002.2242 357.9027 14.96744267106404
Source of the keplerian elements: AMSAT